Location: Lane
(33.5226°N, 79.8788°W)
Time: 14:02:15
(UTC+00:00)

Altair - Pass Details

Date: 06 December 2023
Orbit: 1501 x 1682 km, 47.2° (Epoch: 25 February)

Event Time Altitude Azimuth Distance (km) Brightness Sun altitude
Rises 10:26:37 0° 190° (S) 4,894 10.2 -20.9°
Reaches altitude 10° 10:30:31 10° 178° (S) 3,890 9.8 -20.2°
Maximum altitude 10:38:11 26° 127° (SE) 2,790 9.6 -18.6°
Drops below altitude 10° 10:45:39 10° 76° (ENE) 3,795 10.5 -17.1°
Sets 10:49:21 0° 64° (ENE) 4,754 10.8 -16.4°
